WA6MEM Weather Reports


Display with metric or nautical units.
time (UTC)temp
F
wind
direction
speed
MPH
gust
MPH
rain 1hr
in
rain 24hr
in
rain mn
in
humidity
%
barometer
mb
20260906203049 66 355 5.0 0.0 0.00 0.00 0.40 97 1011.5
20260906202548 66 24 5.0 0.0 0.00 0.00 0.40 97 1011.8
20260906202048 66 9 7.0 0.0 0.00 0.00 0.40 97 1011.8
20260906201600 66 5 6.0 0.0 0.00 0.00 0.40 97 1011.8
20260906201049 66 360 7.0 0.0 0.00 0.00 0.39 97 1012.2
20260906200548 65 360 7.0 0.0 0.00 0.00 0.39 97 1012.2
20260906200050 65 5 6.0 0.0 0.00 0.00 0.39 97 1012.2
20260906195549 65 5 6.0 0.0 0.00 0.00 0.39 97 1012.3
20260906195049 65 13 6.0 0.0 0.00 0.00 0.39 97 1012.3
20260906194547 65 349 6.0 0.0 0.00 0.00 0.39 97 1012.3
20260906194046 65 14 5.0 0.0 0.00 0.00 0.39 97 1012.9
20260906193550 65 360 5.0 0.0 0.00 0.00 0.38 97 1012.9
20260906193047 65 20 5.0 0.0 0.00 0.00 0.38 97 1012.9
20260906192546 65 24 5.0 0.0 0.00 0.00 0.38 97 1013.2
20260906192046 64 350 5.0 0.0 0.00 0.00 0.38 97 1013.2
20260906191547 64 5 5.0 0.0 0.00 0.00 0.38 97 1013.2
20260906191045 64 360 7.0 0.0 0.00 0.00 0.38 97 1012.7
20260906190549 64 5 8.0 0.0 0.00 0.00 0.38 97 1012.7
20260906190046 65 17 7.0 0.0 0.00 0.00 0.38 97 1012.7
20260906185548 65 24 6.0 0.0 0.00 0.00 0.37 97 1012.9
20260906185045 65 5 6.0 0.0 0.00 0.00 0.37 97 1012.9
20260906184545 64 5 6.0 0.0 0.00 0.00 0.37 97 1012.9
20260906184048 64 17 5.0 0.0 0.00 0.00 0.37 97 1013.8
20260906183545 64 360 5.0 0.0 0.00 0.00 0.37 97 1013.8
20260906183046 64 19 4.0 0.0 0.00 0.00 0.36 97 1013.8
20260906182544 64 355 5.0 0.0 0.00 0.00 0.36 96 1013.9
20260906182044 64 5 5.0 0.0 0.00 0.00 0.36 96 1013.9
20260906181546 64 13 5.0 0.0 0.00 0.00 0.36 96 1013.9
20260906181043 64 19 5.0 0.0 0.00 0.00 0.35 96 1013.9
20260906180544 64 5 5.0 0.0 0.00 0.00 0.35 96 1013.9
20260906180058 64 360 6.0 0.0 0.00 0.00 0.35 96 1013.9
20260906175546 64 12 8.0 0.0 0.00 0.00 0.34 96 1013.2
20260906175042 65 360 8.0 0.0 0.00 0.00 0.34 96 1013.2
20260906174542 65 25 6.0 0.0 0.00 0.00 0.34 96 1013.2
20260906174044 65 5 5.0 0.0 0.00 0.00 0.33 96 1013.6
20260906173542 66 355 4.0 0.0 0.00 0.00 0.33 96 1013.6
20260906173042 66 360 4.0 0.0 0.00 0.00 0.32 95 1013.6
20260906172544 66 360 5.0 0.0 0.00 0.00 0.31 95 1013.2
20260906172041 66 360 5.0 0.0 0.00 0.00 0.31 95 1013.2
20260906171542 66 5 3.0 0.0 0.00 0.00 0.30 95 1013.2
20260906171041 66 5 2.0 0.0 0.00 0.00 0.28 95 1013.9
20260906170541 66 23 1.0 0.0 0.00 0.00 0.28 95 1013.9
20260906170041 66 119 0.0 0.0 0.00 0.00 0.27 95 1013.9
20260906165541 66 22 0.0 0.0 0.00 0.00 0.25 95 1012.9
20260906165040 66 22 1.0 0.0 0.00 0.00 0.22 95 1012.9
20260906164540 66 22 3.0 0.0 0.00 0.00 0.20 95 1012.9
20260906164039 65 23 3.0 0.0 0.00 0.00 0.20 95 1012.9
20260906163539 65 11 1.0 0.0 0.00 0.00 0.19 95 1012.9
20260906163039 64 78 0.0 0.0 0.00 0.00 0.18 94 1012.9
20260906162539 64 142 0.0 0.0 0.00 0.00 0.17 94 1012.9
20260906162039 64 142 1.0 0.0 0.00 0.00 0.16 94 1012.9
20260906161545 63 142 1.0 0.0 0.00 0.00 0.16 93 1012.9
20260906161038 63 142 1.0 0.0 0.00 0.00 0.15 93 1013.2
20260906160538 63 186 0.0 0.0 0.00 0.00 0.14 93 1013.2
20260906160038 63 186 1.0 0.0 0.00 0.00 0.14 92 1013.2
20260906155538 64 186 2.0 0.0 0.00 0.00 0.13 92 1013.1
20260906155040 64 217 2.0 0.0 0.00 0.00 0.12 92 1013.1
20260906154543 65 200 2.0 0.0 0.00 0.00 0.09 92 1013.1
20260906154037 65 180 2.0 0.0 0.00 0.00 0.07 92 1012.6
20260906153536 66 179 2.0 0.0 0.00 0.00 0.07 94 1012.6
20260906153037 65 198 1.0 0.0 0.00 0.00 0.06 94 1012.6
20260906152535 65 193 1.0 0.0 0.00 0.00 0.06 94 1012.3
20260906152035 64 82 1.0 0.0 0.00 0.00 0.05 94 1012.3
20260906151536 63 74 0.0 0.0 0.00 0.00 0.05 93 1012.3
20260906151036 62 53 1.0 0.0 0.00 0.00 0.04 91 1012.0
20260906150534 62 53 2.0 0.0 0.00 0.00 0.04 91 1012.0
20260906150046 62 46 3.0 0.0 0.00 0.00 0.04 90 1012.0
20260906145535 62 42 3.0 0.0 0.00 0.00 0.04 90 1012.0
20260906145034 62 360 4.0 0.0 0.00 0.00 0.04 89 1012.0
20260906144533 62 5 4.0 0.0 0.00 0.00 0.04 89 1012.0
20260906144032 62 360 5.0 0.0 0.00 0.00 0.03 88 1011.9
20260906143532 62 11 5.0 0.0 0.00 0.00 0.03 90 1011.9
20260906143032 62 9 5.0 0.0 0.00 0.00 0.03 91 1011.9
20260906142534 62 42 6.0 0.0 0.00 0.00 0.03 91 1011.9
20260906142032 62 360 5.0 0.0 0.00 0.00 0.03 91 1011.9
20260906141531 61 355 4.0 0.0 0.00 0.00 0.03 90 1011.9
20260906141030 61 22 3.0 0.0 0.00 0.00 0.03 89 1011.9
20260906140531 61 17 3.0 0.0 0.00 0.00 0.03 89 1011.9
20260906140035 61 48 4.0 0.0 0.00 0.00 0.03 89 1011.9
20260906135529 61 13 5.0 0.0 0.00 0.00 0.03 89 1011.4
20260906135029 61 24 6.0 0.0 0.00 0.00 0.03 88 1011.4
20260906134526 62 32 6.0 0.0 0.00 0.00 0.03 88 1011.4
20260906134025 63 5 6.0 0.0 0.00 0.00 0.02 88 1011.0
20260906133524 63 5 6.0 0.0 0.00 0.00 0.02 87 1011.0
20260906133025 64 30 6.0 0.0 0.00 0.00 0.02 86 1011.0
20260906132521 65 11 5.0 0.0 0.00 0.00 0.02 83 1011.5
20260906132019 65 355 2.0 0.0 0.00 0.00 0.01 75 1011.5
20260906131518 65 5 0.0 0.0 0.00 0.00 0.01 71 1011.5
20260906131017 65 32 0.0 0.0 0.00 0.00 0.01 71 1011.3
20260906130517 65 29 0.0 0.0 0.00 0.00 0.01 71 1011.3
20260906130026 65 9 0.0 0.0 0.00 0.00 0.01 72 1011.3
20260906125515 65 14 0.0 0.0 0.00 0.00 0.01 71 1011.1
20260906125019 66 26 0.0 0.0 0.00 0.00 0.01 68 1011.1
20260906124512 66 338 0.0 0.0 0.00 0.00 0.01 64 1011.1
20260906124011 67 17 0.0 0.0 0.00 0.00 0.01 64 1011.0
20260906123509 68 26 0.0 0.0 0.00 0.00 0.01 60 1011.0
20260906123016 68 312 0.0 0.0 0.00 0.00 0.00 57 1011.0
20260906122512 68 277 0.0 0.0 0.00 0.00 0.00 53 1011.0
20260906122008 68 306 0.0 0.0 0.00 0.00 0.00 57 1011.0
20260906121507 68 138 0.0 0.0 0.00 0.00 0.00 60 1011.0
20260906121007 69 138 0.0 0.0 0.00 0.00 0.00 51 1010.6
20260906120506 69 138 0.0 0.0 0.00 0.00 0.00 55 1010.6
20260906120005 70 127 0.0 0.0 0.00 0.00 0.00 57 1010.6
20260906115503 71 76 0.0 0.0 0.00 0.00 0.00 57 1010.3
20260906115001 71 53 0.0 0.0 0.00 0.00 0.00 49 1010.3
20260906114505 72 53 0.0 0.0 0.00 0.00 0.00 46 1010.3
20260906114002 72 53 0.0 0.0 0.00 0.00 0.00 41 1010.2
20260906113600 72 53 0.0 0.0 0.00 0.00 0.00 43 1010.2
20260906113100 72 53 0.0 0.0 0.00 0.00 0.00 44 1010.2
20260906112600 72 53 0.0 0.0 0.00 0.00 0.00 42 1010.3
20260906112100 72 53 0.0 0.0 0.00 0.00 0.00 37 1010.3
20260906111617 72 53 0.0 0.0 0.00 0.00 0.00 35 1010.3
20260906111059 72 53 0.0 0.0 0.00 0.00 0.00 36 1010.1
20260906110559 72 53 0.0 0.0 0.00 0.00 0.00 38 1010.1
20260906110100 72 53 0.0 0.0 0.00 0.00 0.00 40 1010.1
20260906105559 72 53 0.0 0.0 0.00 0.00 0.00 37 1010.1
20260906105102 72 53 0.0 0.0 0.00 0.00 0.00 38 1010.1
20260906104558 72 53 0.0 0.0 0.00 0.00 0.00 37 1010.1
20260906104057 72 53 0.0 0.0 0.00 0.00 0.00 38 1010.2
20260906103558 72 53 0.0 0.0 0.00 0.00 0.00 39 1010.2
20260906103057 72 53 0.0 0.0 0.00 0.00 0.00 39 1010.2
20260906102558 72 53 0.0 0.0 0.00 0.00 0.00 37 1010.2
20260906102057 72 53 0.0 0.0 0.00 0.00 0.00 38 1010.2
20260906101557 72 53 0.0 0.0 0.00 0.00 0.00 38 1010.2
20260906101056 72 53 0.0 0.0 0.00 0.00 0.00 41 1010.3
20260906100556 72 53 0.0 0.0 0.00 0.00 0.00 38 1010.3
20260906095556 72 53 0.0 0.0 0.00 0.00 0.00 38 1010.3
20260906095056 72 53 0.0 0.0 0.00 0.00 0.00 36 1010.3
20260906094559 72 53 0.0 0.0 0.00 0.00 0.00 37 1010.3
20260906094055 72 53 0.0 0.0 0.00 0.00 0.00 37 1010.3
20260906093555 72 53 0.0 0.0 0.00 0.00 0.00 37 1010.3
20260906093055 72 53 0.0 0.0 0.00 0.00 0.00 37 1010.3
20260906092556 72 53 0.0 0.0 0.00 0.00 0.00 39 1010.4
20260906092055 72 53 0.0 0.0 0.00 0.00 0.00 39 1010.4
20260906091553 72 53 0.0 0.0 0.00 0.00 0.00 37 1010.4
20260906091054 72 53 0.0 0.0 0.00 0.00 0.00 37 1010.3
20260906090553 72 53 0.0 0.0 0.00 0.00 0.00 38 1010.3
20260906090056 72 53 0.0 0.0 0.00 0.00 0.00 38 1010.3
20260906085554 71 53 0.0 0.0 0.00 0.00 0.00 38 1010.3
20260906085053 71 53 0.0 0.0 0.00 0.00 0.00 37 1010.3
20260906084557 71 53 0.0 0.0 0.00 0.00 0.00 38 1010.3
20260906084053 71 53 0.0 0.0 0.00 0.00 0.00 40 1010.4
20260906083552 71 53 0.0 0.0 0.00 0.00 0.00 37 1010.4
20260906083051 71 53 0.0 0.0 0.00 0.00 0.00 38 1010.4
20260906082550 71 53 0.0 0.0 0.00 0.00 0.00 38 1010.5
20260906082050 71 53 0.0 0.0 0.00 0.00 0.00 38 1010.5
20260906081550 71 53 0.0 0.0 0.00 0.00 0.00 37 1010.5
20260906081049 72 53 0.0 0.0 0.00 0.00 0.00 39 1010.7
20260906080550 72 53 0.0 0.0 0.00 0.00 0.00 38 1010.7
20260906080055 72 53 0.0 0.0 0.00 0.00 0.00 37 1010.7
20260906075553 72 53 0.0 0.0 0.00 0.00 0.00 37 1010.6
20260906075049 71 53 0.0 0.0 0.00 0.00 0.00 36 1010.6
20260906074551 71 53 0.0 0.0 0.00 0.00 0.00 36 1010.6
20260906074047 72 53 0.0 0.0 0.00 0.00 0.00 35 1010.8
20260906073547 72 53 0.0 0.0 0.00 0.00 0.00 37 1010.8
20260906073048 72 53 0.0 0.0 0.00 0.00 0.00 36 1010.8
20260906072546 72 53 0.0 0.0 0.00 0.00 0.00 36 1010.8
20260906072046 72 53 0.0 0.0 0.00 0.00 0.00 38 1010.8
20260906071546 72 53 0.0 0.0 0.00 0.00 0.00 37 1010.8
20260906071045 72 53 0.0 0.0 0.00 0.00 0.00 37 1010.6
20260906070547 72 53 0.0 0.0 0.00 0.00 0.00 36 1010.6
20260906070043 72 53 0.0 0.0 0.00 0.00 0.01 36 1010.6
20260906065544 72 53 0.0 0.0 0.00 0.00 0.01 36 1010.5
20260906065043 72 53 0.0 0.0 0.00 0.00 0.01 37 1010.5
20260906064542 72 53 1.0 0.0 0.00 0.00 0.01 37 1010.5
20260906064043 72 53 2.0 0.0 0.00 0.00 0.01 37 1010.4
20260906063546 72 53 2.0 0.0 0.00 0.00 0.01 37 1010.4
20260906063045 72 53 2.0 0.0 0.00 0.00 0.01 37 1010.4
20260906062541 73 49 1.0 0.0 0.00 0.00 0.01 36 1010.4
20260906062041 73 273 0.0 0.0 0.00 0.00 0.01 36 1010.4
20260906061541 73 273 1.0 0.0 0.00 0.00 0.01 37 1010.4
20260906061040 73 282 2.0 0.0 0.00 0.00 0.01 37 1010.6
20260906060541 74 279 2.0 0.0 0.00 0.00 0.01 37 1010.6
20260906060041 73 258 2.0 0.0 0.00 0.00 0.01 36 1010.6
20260906055541 73 266 3.0 0.0 0.00 0.00 0.01 37 1010.6
20260906055040 73 274 3.0 0.0 0.00 0.00 0.01 37 1010.6
20260906054558 73 279 2.0 0.0 0.00 0.00 0.01 37 1010.6
20260906054040 73 272 2.0 0.0 0.00 0.00 0.01 37 1010.9
20260906053538 73 305 3.0 0.0 0.00 0.00 0.01 37 1010.9
20260906053039 72 292 3.0 0.0 0.00 0.00 0.01 38 1010.9
20260906052539 72 296 3.0 0.0 0.00 0.00 0.01 39 1011.0
20260906052039 72 267 3.0 0.0 0.00 0.00 0.01 39 1011.0
20260906051538 72 242 3.0 0.0 0.00 0.00 0.01 39 1011.0
20260906051039 72 262 3.0 0.0 0.00 0.00 0.01 39 1011.2
20260906050541 72 279 3.0 0.0 0.00 0.00 0.01 39 1011.2
20260906050040 72 246 3.0 0.0 0.00 0.00 0.01 40 1011.2
20260906045539 72 248 2.0 0.0 0.00 0.00 0.01 40 1011.2
20260906045038 72 262 2.0 0.0 0.00 0.00 0.01 40 1011.2
20260906044538 71 266 2.0 0.0 0.00 0.00 0.01 40 1011.2
20260906044039 71 294 2.0 0.0 0.00 0.00 0.01 40 1011.2
20260906043537 71 273 2.0 0.0 0.00 0.00 0.01 41 1011.2
20260906043037 71 281 2.0 0.0 0.00 0.00 0.01 41 1011.2
20260906042537 71 290 2.0 0.0 0.00 0.00 0.01 42 1011.1
20260906042037 71 277 2.0 0.0 0.00 0.00 0.01 42 1011.1
20260906041536 71 304 2.0 0.0 0.00 0.00 0.01 42 1011.1
20260906041038 71 270 2.0 0.0 0.00 0.00 0.01 42 1010.9
20260906040537 71 286 2.0 0.0 0.00 0.00 0.01 44 1010.9
20260906040045 72 277 1.0 0.0 0.00 0.00 0.01 43 1010.9
20260906035537 72 276 1.0 0.0 0.00 0.00 0.01 41 1010.8
20260906035036 72 277 1.0 0.0 0.00 0.00 0.01 40 1010.8
20260906034547 72 274 1.0 0.0 0.00 0.00 0.01 39 1010.8
20260906034035 72 260 1.0 0.0 0.00 0.00 0.01 38 1010.8
20260906033535 72 266 1.0 0.0 0.00 0.00 0.01 39 1010.8
20260906033035 72 301 1.0 0.0 0.00 0.00 0.01 39 1010.8
20260906032537 72 269 0.0 0.0 0.00 0.00 0.01 38 1010.7
20260906032035 72 295 0.0 0.0 0.00 0.00 0.01 39 1010.7
20260906031601 72 295 0.0 0.0 0.00 0.00 0.01 39 1010.7
20260906031039 72 295 1.0 0.0 0.00 0.00 0.01 39 1010.7
20260906030535 72 278 1.0 0.0 0.00 0.00 0.01 38 1010.7
20260906030035 73 297 1.0 0.0 0.00 0.00 0.01 38 1010.7
20260906025534 73 250 1.0 0.0 0.00 0.00 0.01 39 1010.5
20260906025034 73 270 1.0 0.0 0.00 0.00 0.01 40 1010.5
20260906024553 73 277 2.0 0.0 0.00 0.00 0.01 41 1010.5
20260906024035 73 297 2.0 0.0 0.00 0.00 0.01 43 1010.6
20260906023532 73 236 3.0 0.0 0.00 0.00 0.01 44 1010.6
20260906023036 73 234 3.0 0.0 0.00 0.00 0.01 44 1010.6
20260906022531 72 278 3.0 0.0 0.00 0.00 0.01 46 1010.7
20260906022031 72 291 2.0 0.0 0.00 0.00 0.01 48 1010.7
20260906021531 72 255 2.0 0.0 0.00 0.00 0.01 54 1010.7
20260906021029 72 237 2.0 0.0 0.00 0.00 0.01 55 1010.9
20260906020534 72 260 1.0 0.0 0.00 0.00 0.01 56 1010.9
20260906020029 72 274 1.0 0.0 0.00 0.00 0.01 59 1010.9
20260906015530 73 202 2.0 0.0 0.00 0.00 0.01 62 1010.8
20260906015029 73 184 2.0 0.0 0.00 0.00 0.01 63 1010.8
20260906014529 73 226 2.0 0.0 0.00 0.00 0.01 64 1010.8
20260906014029 73 201 2.0 0.0 0.00 0.00 0.01 66 1010.8
20260906013528 73 199 2.0 0.0 0.00 0.00 0.01 64 1010.8
20260906013028 73 205 3.0 0.0 0.00 0.00 0.01 63 1010.8
20260906012528 74 207 3.0 0.0 0.00 0.00 0.01 67 1010.6
20260906012028 75 238 3.0 0.0 0.00 0.00 0.01 65 1010.6
20260906011529 76 259 2.0 0.0 0.00 0.00 0.01 61 1010.6
20260906011028 76 209 1.0 0.0 0.00 0.00 0.01 58 1010.5
20260906010529 76 187 1.0 0.0 0.00 0.00 0.01 56 1010.5
20260906010043 75 294 2.0 0.0 0.00 0.00 0.01 59 1010.5
20260906005527 75 260 2.0 0.0 0.00 0.00 0.01 64 1010.7
20260906005028 75 215 2.0 0.0 0.00 0.00 0.01 66 1010.7
20260906004526 76 235 2.0 0.0 0.00 0.00 0.01 65 1010.7
20260906004026 76 178 2.0 0.0 0.00 0.00 0.01 66 1010.6
20260906003527 76 213 1.0 0.0 0.00 0.00 0.01 66 1010.6
20260906003027 76 194 2.0 0.0 0.00 0.00 0.01 63 1010.6
20260906002527 77 148 2.0 0.0 0.00 0.00 0.01 63 1010.5
20260906002026 77 173 2.0 0.0 0.00 0.00 0.01 64 1010.5
20260906001533 77 167 2.0 0.0 0.00 0.00 0.01 62 1010.5
20260906001026 77 179 2.0 0.0 0.00 0.00 0.01 60 1010.5
20260906000526 77 166 2.0 0.0 0.00 0.00 0.01 58 1010.5
20260906000026 78 172 2.0 0.0 0.00 0.00 0.01 57 1010.5
20260905235526 78 170 2.0 0.0 0.00 0.00 0.01 55 1010.6
20260905235028 78 215 2.0 0.0 0.00 0.00 0.01 58 1010.6
20260905234525 79 154 3.0 0.0 0.00 0.00 0.01 56 1010.6
20260905234025 79 205 3.0 0.0 0.00 0.00 0.01 52 1010.7
20260905233525 78 170 3.0 0.0 0.00 0.00 0.01 53 1010.7
20260905233025 78 181 3.0 0.0 0.00 0.00 0.01 51 1010.7
20260905232525 78 207 3.0 0.0 0.00 0.00 0.01 54 1010.5
20260905232025 79 183 3.0 0.0 0.00 0.00 0.01 55 1010.5
20260905231525 79 173 2.0 0.0 0.00 0.00 0.01 53 1010.5
20260905231025 79 141 2.0 0.0 0.00 0.00 0.01 52 1010.6
20260905230524 79 186 2.0 0.0 0.00 0.00 0.01 50 1010.6
20260905230031 79 176 2.0 0.0 0.00 0.00 0.01 53 1010.6
20260905225526 79 169 2.0 0.0 0.00 0.00 0.01 51 1010.7
20260905225023 80 144 2.0 0.0 0.00 0.00 0.01 57 1010.7
20260905224523 80 148 3.0 0.0 0.00 0.00 0.01 51 1010.7
20260905224022 81 182 2.0 0.0 0.00 0.00 0.01 51 1010.9
20260905223522 80 169 2.0 0.0 0.00 0.00 0.01 50 1010.9
20260905223021 79 206 2.0 0.0 0.00 0.00 0.01 49 1010.9
20260905222522 79 170 2.0 0.0 0.00 0.00 0.01 51 1011.1
20260905222021 79 195 2.0 0.0 0.00 0.00 0.01 51 1011.1
20260905221520 79 152 2.0 0.0 0.00 0.00 0.01 49 1011.1
20260905221021 79 169 2.0 0.0 0.00 0.00 0.01 58 1011.1
20260905220520 79 174 3.0 0.0 0.00 0.00 0.01 56 1011.1
20260905220023 79 182 3.0 0.0 0.00 0.00 0.01 55 1011.1
20260905215520 79 170 3.0 0.0 0.00 0.00 0.01 61 1011.1
20260905215020 80 155 3.0 0.0 0.00 0.00 0.01 61 1011.1
20260905214519 80 360 2.0 0.0 0.00 0.00 0.01 49 1011.1
20260905214018 80 212 2.0 0.0 0.00 0.00 0.01 55 1011.4
20260905213517 79 201 3.0 0.0 0.00 0.00 0.01 61 1011.4
20260905213016 79 206 3.0 0.0 0.00 0.00 0.01 59 1011.4
20260905212515 79 133 3.0 0.0 0.00 0.00 0.01 61 1011.5
20260905212013 78 172 3.0 0.0 0.00 0.00 0.01 60 1011.5
20260905211539 78 157 3.0 0.0 0.00 0.00 0.01 60 1011.5
20260905211014 78 206 3.0 0.0 0.00 0.00 0.01 61 1011.6
20260905210514 78 161 3.0 0.0 0.00 0.00 0.01 64 1011.6
20260905210013 78 177 2.0 0.0 0.00 0.00 0.01 66 1011.6
20260905205513 78 211 2.0 0.0 0.00 0.00 0.01 65 1011.7
20260905205013 78 143 2.0 0.0 0.00 0.00 0.01 67 1011.7
20260905204512 77 169 3.0 0.0 0.00 0.00 0.01 69 1011.7
20260905204015 78 176 3.0 0.0 0.00 0.00 0.01 70 1011.7
20260905203511 78 153 3.0 0.0 0.00 0.00 0.01 70 1011.7